Weather History for Bentonville, AR

Change the Weather History Date:

Sunday, November 18, 2012

  Actual Average Record
Temperature  
Mean Temperature 52 °F -  
Max Temperature 66 °F 56 °F 74 °F (1981)
Min Temperature 39 °F 34 °F 14 °F (1951)
Degree Days  
Heating Degree Days 12    
Growing Degree Days 2 (Base 50)    
Moisture  
Dew Point 28 °F    
Average Humidity 43    
Maximum Humidity 61    
Minimum Humidity 24    
Precipitation  
Precipitation 0.00 in - - ()
Sea Level Pressure  
Sea Level Pressure 30.27 in    
Wind  
Wind Speed 7 mph (SSE)    
Max Wind Speed 12 mph    
Max Gust Speed 16 mph    
Visibility 10 miles    
Events      
Averages and records for this station are not official NWS values.
T = Trace of Precipitation, MM = Missing Value Source: NWS Daily Summary

Daily Weather History Graph

Daily Weather History Graph

Search for Another Location

Airport:

Trip Planner

Search our weather history database for the weather conditions in past years. The results will help you decide how hot, cold, wet, or windy it might be!

Date:

Astronomy

Nov. 18, 2012 Rise Set
Actual Time 6:57 AM CST 5:06 PM CST
Civil Twilight 6:30 AM CST 5:34 PM CST
Nautical Twilight 5:58 AM CST 6:05 PM CST
Astronomical Twilight 5:28 AM CST 6:35 PM CST
Moon 11:26 AM CST (11/18) 10:24 PM CST (11/18)
Length of Visible Light 11h 04m
Length of Day
10h 08m
Waxing Crescent, 30% of the Moon is Illuminated
Nov 18
Waxing Crescent
Nov 20
First Quarter
Nov 28
Full
Dec 6
Last Quarter
Dec 13
New

Hourly Weather History & Observations

Time (CST) Temp. Windchill Dew Point Humidity Pressure Visibility Wind Dir Wind Speed Gust Speed Precip Events Conditions
12:15 AM 42.8 °F 38.0 °F 26.6 °F 53% 30.32 in 10.0 mi SE 8.1 mph - N/A   Clear
12:35 AM 42.8 °F 38.0 °F 26.6 °F 53% 30.32 in 10.0 mi SE 8.1 mph - N/A   Clear
12:55 AM 42.8 °F 38.6 °F 26.6 °F 53% 30.32 in 10.0 mi SE 6.9 mph - N/A   Clear
1:15 AM 42.8 °F 38.0 °F 26.6 °F 53% 30.32 in 10.0 mi SE 8.1 mph - N/A   Clear
1:35 AM 42.8 °F 38.6 °F 26.6 °F 53% 30.32 in 10.0 mi SE 6.9 mph - N/A   Clear
2:15 AM 39.2 °F 35.0 °F 26.6 °F 61% 30.31 in 10.0 mi SE 5.8 mph - N/A   Clear
2:35 AM 39.2 °F 35.0 °F 26.6 °F 61% 30.31 in 10.0 mi SE 5.8 mph - N/A   Clear
2:55 AM 41.0 °F 37.1 °F 26.6 °F 57% 30.31 in 10.0 mi SE 5.8 mph - N/A   Clear
3:15 AM 41.0 °F 37.1 °F 26.6 °F 57% 30.31 in 10.0 mi SE 5.8 mph - N/A   Clear
3:35 AM 41.0 °F 37.1 °F 26.6 °F 57% 30.30 in 10.0 mi SE 5.8 mph - N/A   Clear
4:16 AM 41.0 °F 35.8 °F 24.8 °F 53% 30.29 in 10.0 mi SE 8.1 mph - N/A   Clear
4:35 AM 41.0 °F 38.0 °F 24.8 °F 53% 30.29 in 10.0 mi SE 4.6 mph - N/A   Clear
4:55 AM 39.2 °F 35.9 °F 24.8 °F 56% 30.29 in 10.0 mi SE 4.6 mph - N/A   Clear
5:35 AM 39.2 °F 34.2 °F 24.8 °F 56% 30.29 in 10.0 mi SE 6.9 mph - N/A   Clear
5:55 AM 39.2 °F 37.0 °F 24.8 °F 56% 30.29 in 10.0 mi ESE 3.5 mph - N/A   Clear
6:15 AM 39.2 °F 35.9 °F 24.8 °F 56% 30.29 in 10.0 mi SE 4.6 mph - N/A   Clear
6:35 AM 39.2 °F 35.9 °F 26.6 °F 61% 30.29 in 10.0 mi SE 4.6 mph - N/A   Clear
7:15 AM 39.2 °F 37.0 °F 26.6 °F 61% 30.29 in 10.0 mi SE 3.5 mph - N/A   Clear
7:55 AM 41.0 °F 38.0 °F 28.4 °F 61% 30.30 in 10.0 mi SE 4.6 mph - N/A   Clear
8:15 AM 44.6 °F 43.1 °F 30.2 °F 57% 30.30 in 10.0 mi SSE 3.5 mph - N/A   Clear
8:35 AM 44.6 °F 42.2 °F 30.2 °F 57% 30.31 in 10.0 mi SE 4.6 mph - N/A   Clear
9:15 AM 48.2 °F - 30.2 °F 50% 30.32 in 10.0 mi SSE 3.5 mph - N/A   Clear
9:35 AM 51.8 °F - 28.4 °F 41% 30.32 in 10.0 mi SSE 6.9 mph - N/A   Clear
9:55 AM 53.6 °F - 30.2 °F 41% 30.32 in 10.0 mi South 5.8 mph - N/A   Clear
10:16 AM 55.4 °F - 26.6 °F 33% 30.32 in 10.0 mi SSE 8.1 mph - N/A   Clear
10:35 AM 57.2 °F - 28.4 °F 33% 30.32 in 10.0 mi South 6.9 mph - N/A   Clear
10:55 AM 60.8 °F - 28.4 °F 29% 30.32 in 10.0 mi South 9.2 mph - N/A   Clear
11:15 AM 60.8 °F - 28.4 °F 29% 30.31 in 10.0 mi South 9.2 mph - N/A   Clear
11:35 AM 62.6 °F - 28.4 °F 27% 30.29 in 10.0 mi South 8.1 mph - N/A   Clear
11:55 AM 62.6 °F - 26.6 °F 26% 30.28 in 10.0 mi North - - N/A   Clear
12:15 PM 62.6 °F - 28.4 °F 27% 30.27 in 10.0 mi SSW 11.5 mph - N/A   Clear
12:35 PM 64.4 °F - 26.6 °F 24% 30.27 in 10.0 mi South 9.2 mph - N/A   Clear
12:55 PM 64.4 °F - 28.4 °F 26% 30.26 in 10.0 mi SSW 11.5 mph - N/A   Clear
1:16 PM 66.2 °F - 28.4 °F 24% 30.25 in 10.0 mi SW 10.4 mph 16.1 mph N/A   Clear
1:35 PM 64.4 °F - 28.4 °F 26% 30.24 in 10.0 mi SSW 10.4 mph - N/A   Clear
2:35 PM 62.6 °F - 26.6 °F 26% 30.22 in 10.0 mi South 8.1 mph - N/A   Clear
2:55 PM 64.4 °F - 30.2 °F 28% 30.21 in 10.0 mi South 8.1 mph - N/A   Clear
3:35 PM 64.4 °F - 28.4 °F 26% 30.21 in 10.0 mi South 6.9 mph - N/A   Clear
3:55 PM 62.6 °F - 26.6 °F 26% 30.21 in 10.0 mi South 6.9 mph - N/A   Clear
4:35 PM 62.6 °F - 26.6 °F 26% 30.21 in 10.0 mi South 6.9 mph - N/A   Clear
4:55 PM 59.0 °F - 26.6 °F 29% 30.21 in 10.0 mi South 6.9 mph - N/A   Clear
5:16 PM 57.2 °F - 26.6 °F 31% 30.21 in 10.0 mi South 5.8 mph - N/A   Clear
5:35 PM 53.6 °F - 26.6 °F 35% 30.20 in 10.0 mi SSE 8.1 mph - N/A   Clear
5:55 PM 53.6 °F - 26.6 °F 35% 30.21 in 10.0 mi SSE 6.9 mph - N/A   Clear
6:35 PM 55.4 °F - 28.4 °F 36% 30.22 in 10.0 mi SSE 8.1 mph - N/A   Clear
6:55 PM 55.4 °F - 28.4 °F 36% 30.22 in 10.0 mi SSE 6.9 mph - N/A   Partly Cloudy
7:35 PM 55.4 °F - 30.2 °F 38% 30.22 in 10.0 mi SSE 10.4 mph - N/A   Partly Cloudy
8:15 PM 53.6 °F - 30.2 °F 41% 30.23 in 10.0 mi SSE 5.8 mph - N/A   Mostly Cloudy
8:36 PM 53.6 °F - 32.0 °F 44% 30.23 in 10.0 mi SSE 6.9 mph - N/A   Mostly Cloudy
8:55 PM 53.6 °F - 32.0 °F 44% 30.23 in 10.0 mi SE 4.6 mph - N/A   Mostly Cloudy
9:15 PM 53.6 °F - 33.8 °F 47% 30.23 in 10.0 mi SSE 6.9 mph - N/A   Scattered Clouds
9:55 PM 53.6 °F - 33.8 °F 47% 30.22 in 10.0 mi SSE 6.9 mph - N/A   Clear
11:15 PM 51.8 °F - 33.8 °F 50% 30.22 in 10.0 mi South 5.8 mph - N/A   Clear
11:35 PM 51.8 °F - 33.8 °F 50% 30.22 in 10.0 mi South 4.6 mph - N/A   Clear
11:55 PM 51.8 °F - 33.8 °F 50% 30.22 in 10.0 mi South 5.8 mph - N/A   Clear